WS Maaseik 1 Meer informatie WS Maaseik 1


WS Maaseik 2 Meer informatie WS Maaseik 2


Regen radar Meer informatie rain snow radar


Bezoek onze andere website:

Vorige versie
weerstation Maaseik


Bezoek ook eens deze sites:

Weerstation Geleen



We konden geen weer-waarchuwingen ophalen. Ga rechtstreeks naar de Meteoalarm site : www.meteoalarm.eu en controleer daar .

15 daagse weersverwachting Alta (NO)

  • Overzicht
  • Per uur
  • 15 dagen
  • Extra
  • Vergelijk
  • Kaarten
  • Dagkaart
  • Meer »
  • Info
  • Statistieken
  • Directe link
    Temp 6h Neerslag Wind  
 03:26     21:41    Daglengte: 18:15 Vandaag
20:00
10°
 
2
 03:31     21:35    Daglengte: 18:04 Morgen
02:00
 
2
08:00
11°
 
2
14:00
15°
 
2
20:00
15°
 
1
 03:36     21:30    Daglengte: 17:54 Dinsdag 16 Aug
02:00
14°
 
4
08:00
17°
 
4
14:00
21°
 
4
20:00
19°
 
3
 03:41     21:24    Daglengte: 17:43 Woensdag 17 Aug
02:00
18°
 
6
08:00
20°
0.9 mm
6
warningclass
Locatie info
Region: Finnmark
Latitude: 69.9684°N
Longitude: 23.2708°E
65 masl
Postcode: 9511
Temp/Neerslag /Baro Onweer/Dauwpunt
    Temp Baro 1h Neerslag Dauwpunt Wind UV Bewolking  
 03:26     21:41    Daglengte: 18:15 Vandaag
16:00
12°
1018.9 hPa
14%
5.3°
3
Windvlaag: 0.2 m/s
14%
17:00
12°
1019.1 hPa
14%
5.3°
3
Windvlaag: -0.5 m/s
15%
18:00
11°
1019.3 hPa
14%
5.2°
2
Windvlaag: -1.2 m/s
18%
19:00
11°
1019.1 hPa
14%
4.9°
2
Windvlaag: -1.8 m/s
9%
20:00
10°
1019.2 hPa
14%
4.9°
2
Windvlaag: -1.7 m/s
13%
21:00
Voelt als: 8.7°
1019.4 hPa
14%
5.4°
2
Windvlaag: -1.5 m/s
14%
22:00
Voelt als: 8.0°
1019.6 hPa
14%
6.1°
2
Windvlaag: -0.4 m/s
16%
23:00
Voelt als: 6.8°
1019.6 hPa
14%
5.3°
2
Windvlaag: 0.5 m/s
17%
 03:31     21:35    Daglengte: 18:04 Morgen
00:00
Voelt als: 5.9°
1019.6 hPa
14%
4.9°
2
Windvlaag: 1 m/s
38%
01:00
Voelt als: 5.2°
1019.4 hPa
14%
4.7°
2
Windvlaag: 1.7 m/s
24%
02:00
Voelt als: 5.7°
1019.2 hPa
14%
4.7°
2
Windvlaag: 3.6 m/s
19%
03:00
Voelt als: 6.1°
1019.0 hPa
14%
4.8°
2
Windvlaag: 3.9 m/s
59%
04:00
Voelt als: 6.4°
1018.5 hPa
14%
5.1°
2
Windvlaag: 3.4 m/s
68%
05:00
Voelt als: 7.3°
1018.1 hPa
14%
5.4°
2
Windvlaag: 3.3 m/s
68%
06:00
Voelt als: 8.3°
1017.5 hPa
14%
6.0°
2
Windvlaag: 3.2 m/s
64%
07:00
10°
Voelt als: 9.1°
1017.0 hPa
22%
5.3°
2
Windvlaag: 3.9 m/s
59%
08:00
11°
1016.7 hPa
82%
5.2°
2
Windvlaag: 4.3 m/s
56%
09:00
11°
1016.5 hPa
30%
5.6°
2
Windvlaag: 4.6 m/s
63%
10:00
12°
1016.4 hPa
22%
6.0°
2
Windvlaag: 4.4 m/s
59%
11:00
13°
1016.1 hPa
29%
6.2°
2
Windvlaag: 4 m/s
53%
12:00
14°
1015.9 hPa
67%
6.5°
1
Windvlaag: 3.7 m/s
68%
13:00
14°
1015.6 hPa
23%
7.1°
2
Windvlaag: 3.4 m/s
57%
14:00
15°
1015.2 hPa
17%
7.9°
2
Windvlaag: 2.8 m/s
57%
15:00
15°
1014.8 hPa
16%
9.1°
1
Windvlaag: 1.5 m/s
18%
16:00
14°
1014.4 hPa
18%
8.5°
2
Windvlaag: 0.3 m/s
43%
17:00
14°
1014.2 hPa
24%
8.9°
1
Windvlaag: -0.1 m/s
47%
18:00
15°
1013.7 hPa
32%
9.1°
1
Windvlaag: 0.2 m/s
45%
19:00
15°
1013.5 hPa
79%
9.1°
1
Windvlaag: 0.9 m/s
49%
20:00
15°
1013.4 hPa
75%
9.6°
1
Windvlaag: 2.3 m/s
49%
21:00
14°
1013.3 hPa
68%
10.3°
2
Windvlaag: 5.1 m/s
36%
22:00
14°
1013.2 hPa
14%
11.3°
2
Windvlaag: 6.2 m/s
58%
23:00
14°
1013.1 hPa
14%
12.1°
3
Windvlaag: 6.1 m/s
43%
 03:36     21:30    Daglengte: 17:54 Dinsdag 16 Aug
00:00
15°
1013.1 hPa
14%
12.8°
3
Windvlaag: 6.8 m/s
44%
01:00
14°
1012.9 hPa
14%
12.7°
3
Windvlaag: 7.2 m/s
36%
02:00
14°
1012.7 hPa
14%
12.5°
4
Windvlaag: 6.9 m/s
17%
03:00
14°
1012.4 hPa
14%
12.4°
4
Windvlaag: 6.6 m/s
18%
04:00
14°
1012.1 hPa
14%
12.6°
4
Windvlaag: 6.6 m/s
16%
05:00
14°
1011.8 hPa
16%
12.9°
4
Windvlaag: 6.5 m/s
15%
06:00
14°
1011.7 hPa
14%
13.0°
4
Windvlaag: 6.8 m/s
24%
07:00
15°
1011.5 hPa
14%
13.3°
4
Windvlaag: 6.6 m/s
16%
08:00
17°
1011.2 hPa
14%
13.8°
4
Windvlaag: 6.4 m/s
66%
09:00
18°
1011.0 hPa
14%
13.8°
4
Windvlaag: 6.5 m/s
57%
10:00
19°
1011.0 hPa
14%
13.8°
4
Windvlaag: 7 m/s
58%
11:00
19°
1010.3 hPa
21%
14.3°
4
Windvlaag: 7.3 m/s
82%
12:00
20°
1010.1 hPa
21%
14.1°
4
Windvlaag: 7.4 m/s
80%
13:00
21°
1009.8 hPa
68%
14.4°
4
Windvlaag: 7 m/s
69%
14:00
21°
1009.4 hPa
74%
13.8°
4
Windvlaag: 7.1 m/s
61%
15:00
20°
1009.3 hPa
32%
12.7°
5
Windvlaag: 7.1 m/s
57%
16:00
20°
1009.4 hPa
78%
11.6°
5
Windvlaag: 7.7 m/s
48%
17:00
20°
1009.2 hPa
75%
10.9°
5
Windvlaag: 8.6 m/s
47%
18:00
20°
1008.7 hPa
71%
10.9°
5
Windvlaag: 9 m/s
50%
19:00
19°
1008.5 hPa
23%
11.7°
5
Windvlaag: 8.9 m/s
46%
20:00
19°
1008.1 hPa
72%
14.5°
3
Windvlaag: 7.4 m/s
64%
21:00
18°
1008.3 hPa
80%
14.6°
5
Windvlaag: 9.1 m/s
91%
22:00
19°
1008.3 hPa
97%
16.8°
5
Windvlaag: 8.9 m/s
76%
23:00
19°
1007.9 hPa
93%
17.4°
5
Windvlaag: 8.6 m/s
48%
 03:41     21:24    Daglengte: 17:43 Woensdag 17 Aug
00:00
19°
1007.1 hPa
38%
17.7°
5
Windvlaag: 8.9 m/s
48%
01:00
18°
1007.1 hPa
35%
17.3°
6
Windvlaag: 8.7 m/s
42%
02:00
18°
1006.6 hPa
22%
17.0°
6
Windvlaag: 9.3 m/s
69%
03:00
18°
1006.0 hPa
38%
16.7°
7
Windvlaag: 10.5 m/s
82%
04:00
18°
1005.7 hPa
92%
16.3°
7
Windvlaag: 10.9 m/s
57%
05:00
18°
1005.1 hPa
36%
15.9°
7
Windvlaag: 11.1 m/s
21%
06:00
19°
1002.8 hPa
55%
17.1°
5
Windvlaag: 14.2 m/s
47%
07:00
20°
1002.4 hPa
55%
16.8°
6
Windvlaag: 11.9 m/s
83%
08:00
20°
1002.6 hPa 0.9 mm
97%
17.3°
6
Windvlaag: 17.2 m/s
94% warningclass
09:00
20°
1003.0 hPa 1.0 mm
100%
16.6°
3
Windvlaag: 16.7 m/s
82%
10:00
16°
1004.1 hPa 1.2 mm
97%
12.6°
5
Windvlaag: 16.5 m/s
88%
11:00
15°
1004.4 hPa 1.4 mm
100%
11.6°
4
Windvlaag: 14.5 m/s
99%
12:00
14°
1004.6 hPa 1.9 mm
100%
11.9°
4
Windvlaag: 10.3 m/s
100%
13:00
13°
1005.1 hPa 2.8 mm
100%
11.4°
4
Windvlaag: 10 m/s
100%
14:00
12°
1005.8 hPa 3.0 mm
100%
11.1°
3
Windvlaag: 8.6 m/s
100%
Temp/Neerslag /Baro Onweer/Dauwpunt
    Temp Baro Neerslag Dauwpunt Wind Bewolking  
 03:26     21:41    Daglengte: 18:15 Vandaag
17:00
12°
1019.1 hPa   5.3°
3
15%
20:00
10°
1019.2 hPa   4.9°
2
13%
23:00
Voelt als: 6.8°
1019.6 hPa   5.3°
2
17%
 03:31     21:35    Daglengte: 18:04 Morgen
02:00
Voelt als: 5.7°
1019.2 hPa   4.7°
2
19%
05:00
Voelt als: 7.3°
1018.1 hPa   5.4°
2
68%
08:00
11°
1016.7 hPa   5.2°
2
56%
11:00
13°
1016.1 hPa   6.2°
2
53%
14:00
15°
1015.2 hPa   7.9°
2
57%
17:00
14°
1014.2 hPa   8.9°
1
47%
20:00
15°
1013.4 hPa   9.6°
1
49%
23:00
14°
1013.1 hPa   12.1°
3
43%
 03:36     21:30    Daglengte: 17:54 Dinsdag 16 Aug
02:00
14°
1012.7 hPa   12.5°
4
17%
05:00
14°
1011.8 hPa   12.9°
4
15%
08:00
17°
1011.2 hPa   13.8°
4
66%
11:00
19°
1010.3 hPa   14.3°
4
82%
14:00
21°
1009.4 hPa   13.8°
4
61%
17:00
20°
1009.2 hPa   10.9°
5
47%
20:00
19°
1008.1 hPa   14.5°
3
64%
23:00
19°
1007.9 hPa   17.4°
5
48%
 03:41     21:24    Daglengte: 17:43 Woensdag 17 Aug
02:00
18°
1006.6 hPa   17.0°
6
69%
05:00
18°
1005.1 hPa   15.9°
7
21%
08:00
20°
1002.6 hPa 0.9 mm 17.3°
6
94% warningclass
11:00
15°
1004.4 hPa 3.6 mm 11.6°
4
99%
14:00
12°
1005.8 hPa 7.7 mm 11.1°
3
100%
17:00
20°
1004.4 hPa 1.1 mm 15.1°
7
1%
20:00
11°
1009.4 hPa 3.1 mm 10.4°
5
1%
23:00
10°
Voelt als: 7.6°
1012.9 hPa 4.5 mm 8.2°
4
1%
 03:45     21:19    Daglengte: 17:34 Donderdag 18 Aug
02:00
Voelt als: 7.0°
1015.4 hPa 6.1 mm 7.4°
3
1%
05:00
Voelt als: 8.4°
1017.2 hPa 7.5 mm 6.8°
1
1%
08:00
1019.3 hPa 8.5 mm 7.3°
1
1%
11:00
1021.1 hPa 8.9 mm 7.3°
1
1%
14:00
10°
Voelt als: 9.5°
1022.1 hPa 8.9 mm 7.0°
2
1%
17:00
10°
1022.1 hPa 8.9 mm 6.9°
1
1%
20:00
10°
1021.2 hPa 9.0 mm 7.1°
1
1%
23:00
10°
Voelt als: 9.6°
1020.6 hPa 9.4 mm 7.4°
1
1%
 03:50     21:14    Daglengte: 17:24 Vrijdag 19 Aug
02:00
Voelt als: 8.3°
1020.5 hPa 10.0 mm 7.8°
2
1%
05:00
10°
Voelt als: 8.4°
1019.6 hPa 10.0 mm 7.5°
2
1%
08:00
10°
1019.8 hPa 10.0 mm 7.7°
5
1%
11:00
12°
1019.2 hPa 10.0 mm 8.8°
5
1%
14:00
13°
1018.6 hPa 10.1 mm 9.0°
8
1%
17:00
15°
1017.3 hPa 10.1 mm 9.1°
8
1%
20:00
15°
1017.1 hPa 10.1 mm 11.7°
6
1%
23:00
14°
1017.1 hPa 10.1 mm 11.2°
7
1%
 03:55     21:09    Daglengte: 17:14 Zaterdag 20 Aug
02:00
13°
1017.2 hPa 10.1 mm 11.0°
6
1%
05:00
13°
1016.7 hPa 10.1 mm 11.9°
6
1%
08:00
16°
1015.6 hPa 10.1 mm 13.9°
7
1%
11:00
19°
1014.9 hPa 10.1 mm 15.5°
9
1%
14:00
21°
1014.1 hPa 10.1 mm 15.7°
9
0%
20:00
19°
1013.9 hPa 10.1 mm 15.0°
6
0%
23:00
16°
1014.1 hPa 10.1 mm 15.1°
6
0%
 03:59     21:03    Daglengte: 17:04 Zondag 21 Aug
02:00
15°
1013.7 hPa 10.1 mm 13.8°
6
0%
05:00
15°
1013.3 hPa 10.1 mm 13.8°
6
0%
08:00
18°
1013.4 hPa 10.1 mm 14.5°
8
0%
11:00
19°
1013.0 hPa 10.1 mm 14.5°
10
0%
14:00
20°
1012.3 hPa 10.1 mm 13.1°
8
0%
17:00
20°
1011.1 hPa   14.1°
7
0%
20:00
18°
1010.7 hPa 20.1 mm 13.7°
5
0%
 04:04     20:58    Daglengte: 16:54 Maandag 22 Aug
02:00
15°
1009.0 hPa 20.1 mm 12.6°
5
0%
08:00
15°
1006.9 hPa 20.1 mm 13.7°
7
0%
14:00
16°
1004.9 hPa 20.4 mm 14.3°
8
1%
20:00
16°
1005.8 hPa 20.6 mm 10.9°
7
0%
 04:08     20:53    Daglengte: 16:45 Dinsdag 23 Aug
02:00
13°
1006.8 hPa 20.6 mm 9.7°
9
1%
08:00
13°
1008.2 hPa 20.6 mm 8.0°
10
0%
14:00
15°
1008.6 hPa 20.6 mm 8.7°
13
0%
20:00
14°
1008.3 hPa 20.6 mm 9.4°
9
0%
 04:13     20:48    Daglengte: 16:35 Woensdag 24 Aug
02:00
11°
1010.6 hPa 20.6 mm 9.5°
4
0%
08:00
12°
1011.7 hPa 20.7 mm 10.3°
5
0%
14:00
15°
1012.8 hPa 1.2 mm 9.6°
2
77%
20:00
13°
1013.0 hPa 0.2 mm 9.7°
0
74%
 04:17     20:43    Daglengte: 16:26 Donderdag 25 Aug
02:00
10°
1013.4 hPa   8.6°
1
76%
08:00
12°
1013.4 hPa 1.0 mm 9.3°
1
75%
14:00
14°
1013.5 hPa   9.5°
1
76%
20:00
12°
1013.7 hPa 0.8 mm 9.6°
1
76%
 04:22     20:38    Daglengte: 16:16 Vrijdag 26 Aug
02:00
10°
1014.2 hPa 0.9 mm 8.4°
1
75%
08:00
12°
1014.5 hPa 0.6 mm 9.0°
1
73%
14:00
14°
1014.9 hPa 0.5 mm 9.1°
2
77%
20:00
11°
1015.2 hPa 0.9 mm 8.7°
1
81%
 04:26     20:33    Daglengte: 16:07 Zaterdag 27 Aug
02:00
1015.4 hPa 0.2 mm 7.8°
1
76%
08:00
11°
1014.9 hPa 1.0 mm 8.3°
1
70%
14:00
14°
1015.0 hPa 0.6 mm 8.3°
2
75%
20:00
11°
1015.2 hPa 0.2 mm 8.7°
1
82%
 04:30     20:28    Daglengte: 15:58 Zondag 28 Aug
02:00
Voelt als: 8.7°
1015.6 hPa 0.7 mm 7.7°
1
87%
08:00
10°
1015.2 hPa 0.8 mm 7.9°
1
90%
14:00
12°
1015.8 hPa 0.1 mm 7.9°
2
82%
20:00
10°
1015.8 hPa 0.9 mm 7.5°
1
78%
 04:35     20:23    Daglengte: 15:48 Maandag 29 Aug
02:00
Voelt als: 7.7°
1015.5 hPa 0.7 mm 6.4°
1
73%
08:00
10°
Voelt als: 9.0°
1014.9 hPa 0.9 mm 7.0°
2
75%
14:00
12°
1015.3 hPa 0.8 mm 7.8°
2
79%
  CAPE Lifted Index Hail Supercell Tornado SRH 3km CL BTM PRES CL TOP PRES Swiss DWD icon SMHI TS
 03:26     21:41    Daglengte: 18:15 Vandaag
16:00 5 J/kg 9.5 K 0 % 0 % 0 % 0 m²/s² 0 0 12.38 2
17:00 3 J/kg 9.6 K 0 % 0 % 0 % 0 m²/s² 0 0 12.39 2
18:00 0 J/kg 9.9 K 0 % 0 % 0 % 0 m²/s² 0 0 13.35 2
19:00 0 J/kg 10.2 K 0 % 0 % 0 % 0 m²/s² 0 0 14.16 1
20:00 0 J/kg 9.6 K 0 % 0 % 0 % 0 m²/s² 0 0 13.44 1
21:00 0 J/kg 8.8 K 0 % 0 % 0 % 0 m²/s² 0 0 10.78 1
22:00 0 J/kg 8.2 K 0 % 0 % 0 % 0 m²/s² 0 0 8.92 0
23:00 0 J/kg 7.3 K 0 % 0 % 0 % 0 m²/s² 0 0 7.81 0
 03:31     21:35    Daglengte: 18:04 Morgen
00:00 0 J/kg 7.0 K 0 % 0 % 0 % 0 m²/s² 0 0 7.9 2
01:00 0 J/kg 5.4 K 0 % 0 % 0 % 0 m²/s² 0 0 5.82 2
02:00 0 J/kg 4.4 K 0 % 0 % 0 % 0 m²/s² 0 0 4.64 2
03:00 0 J/kg 3.5 K 0 % 0 % 0 % 0 m²/s² 0 0 3.83 3
04:00 0 J/kg 2.7 K 0 % 0 % 0 % 0 m²/s² 0 0 3.24 3
05:00 0 J/kg 2.6 K 0 % 0 % 0 % 0 m²/s² 0 0 3.23 3
06:00 0 J/kg 3.0 K 0 % 0 % 0 % 0 m²/s² 0 0 3.69 3
07:00 0 J/kg 3.1 K 0 % 0 % 0 % 0 m²/s² 0 0 4.12 3
08:00 0 J/kg 3.2 K 0 % 0 % 0 % 0 m²/s² 0 0 4.46 3
09:00 0 J/kg 3.2 K 0 % 0 % 0 % 0 m²/s² 0 0 4.4 3
10:00 0 J/kg 2.7 K 0 % 0 % 0 % 0 m²/s² 0 0 3.75 3
11:00 0 J/kg 2.1 K 0 % 0 % 0 % 0 m²/s² 0 0 3.27 3
12:00 9 J/kg 0.9 K 0 % 0 % 0 % 0 m²/s² 0 0 2.34 3
13:00 72 J/kg -0.4 K 0 % 0 % 0 % 0 m²/s² 0 0 1.19 3
14:00 123 J/kg -1.2 K 0 % 0 % 0 % 0 m²/s² 0 0 0.42 2
15:00 97 J/kg -1.4 K 0 % 0 % 0 % 0 m²/s² 0 0 -0.32 2
16:00 32 J/kg -2.2 K 0 % 0 % 0 % 0 m²/s² 0 0 -1.18 2
17:00 128 J/kg -2.5 K 0 % 0 % 0 % 0 m²/s² 0 0 -1.63 3
18:00 212 J/kg -1.9 K 0 % 0 % 0 % 0 m²/s² 0 0 -0.34 3
19:00 267 J/kg -1.5 K 0 % 0 % 0 % 0 m²/s² 0 0 -0.12 3
20:00 223 J/kg -1.8 K 0 % 0 % 0 % 0 m²/s² 0 0 -0.66 3
21:00 68 J/kg -0.7 K 0 % 0 % 0 % 0 m²/s² 0 0 0.44 3
22:00 16 J/kg -1.5 K 0 % 0 % 0 % 0 m²/s² 0 0 -0.15 3
23:00 48 J/kg -1.6 K 0 % 0 % 0 % 0 m²/s² 0 0 -0.82 3
 03:36     21:30    Daglengte: 17:54 Dinsdag 16 Aug
00:00 92 J/kg -1.2 K 0 % 0 % 0 % 0 m²/s² 0 0 -0.87 3
01:00 0 J/kg -0.5 K 0 % 0 % 0 % 0 m²/s² 0 0 0.4 3
02:00 0 J/kg -0.4 K 0 % 0 % 0 % 0 m²/s² 0 0 0.83 2
03:00 0 J/kg -0.2 K 0 % 0 % 0 % 0 m²/s² 0 0 0.73 2
04:00 0 J/kg 0.3 K 0 % 0 % 0 % 0 m²/s² 0 0 1.23 2
05:00 0 J/kg 0.1 K 0 % 0 % 0 % 0 m²/s² 0 0 1.51 2
06:00 0 J/kg -0.3 K 0 % 0 % 0 % 0 m²/s² 0 0 0.78 3
07:00 0 J/kg -0.3 K 0 % 0 % 0 % 0 m²/s² 0 0 0.42 2
08:00 1 J/kg -0.1 K 0 % 0 % 0 % 0 m²/s² 0 0 0.89 3
09:00 4 J/kg 0.3 K 0 % 0 % 0 % 0 m²/s² 0 0 0.96 3
10:00 7 J/kg 0.2 K 0 % 0 % 0 % 0 m²/s² 0 0 1.1 3
11:00 7 J/kg 0.0 K 0 % 0 % 0 % 0 m²/s² 0 0 0.84 3
12:00 70 J/kg -0.9 K 0 % 0 % 0 % 0 m²/s² 0 0 -0.09 3
13:00 338 J/kg -2.0 K 0 % 0 % 0 % 0 m²/s² 0 0 -1.34 3
14:00 349 J/kg -1.8 K 0 % 0 % 0 % 0 m²/s² 0 0 -0.96 3
15:00 284 J/kg -1.5 K 0 % 0 % 0 % 0 m²/s² 0 0 0.45 3
16:00 174 J/kg -1.1 K 0 % 0 % 0 % 0 m²/s² 0 0 1.12 3
17:00 115 J/kg -0.9 K 0 % 0 % 0 % 0 m²/s² 0 0 0.36 3
18:00 85 J/kg -0.4 K 0 % 0 % 0 % 0 m²/s² 0 0 1.43 3
19:00 77 J/kg -0.5 K 0 % 0 % 0 % 0 m²/s² 0 0 -0.5 3
20:00 68 J/kg -1.2 K 0 % 0 % 0 % 0 m²/s² 0 0 -0.99 3
21:00 0 J/kg -1.1 K 0 % 0 % 0 % 0 m²/s² 0 0 -0.62 3
22:00 48 J/kg -1.8 K 0 % 0 % 0 % 0 m²/s² 0 0 -1.32 61
23:00 27 J/kg -1.1 K 0 % 0 % 0 % 0 m²/s² 0 0 0.22 3
 03:41     21:24    Daglengte: 17:43 Woensdag 17 Aug
00:00 80 J/kg -1.3 K 0 % 0 % 0 % 0 m²/s² 0 0 0.56 3
01:00 116 J/kg -1.5 K 0 % 0 % 0 % 0 m²/s² 0 0 0.24 3
02:00 150 J/kg -1.9 K 0 % 0 % 0 % 0 m²/s² 0 0 -0.43 3
03:00 34 J/kg -2.0 K 0 % 0 % 0 % 0 m²/s² 0 0 -1.73 3
04:00 74 J/kg -1.6 K 0 % 0 % 0 % 0 m²/s² 0 0 -0.37 3
05:00 0 J/kg -0.5 K 0 % 0 % 0 % 0 m²/s² 0 0 1.3 2
06:00 0 J/kg 0.1 K 0 % 0 % 0 % 0 m²/s² 0 0 2.44 3
07:00 0 J/kg -0.4 K 0 % 0 % 0 % 0 m²/s² 0 0 1.91 3
08:00 0 J/kg -0.6 K 0 % 0 % 0 % 0 m²/s² 0 0 1.65 3
09:00 73 J/kg -0.8 K 0 % 0 % 0 % 0 m²/s² 0 0 0.46 80
10:00 255 J/kg -1.3 K 0 % 0 % 0 % 0 m²/s² 0 0 -0.55 80
11:00 262 J/kg -1.4 K 0 % 0 % 0 % 0 m²/s² 0 0 -1.31 80
12:00 1 J/kg 1.0 K 0 % 0 % 0 % 0 m²/s² 0 0 1.03 80
13:00 2 J/kg 1.6 K 0 % 0 % 0 % 0 m²/s² 0 0 1.72 61
14:00 2 J/kg 1.6 K 0 % 0 % 0 % 0 m²/s² 0 0 1.99 61
Temp Baro Wind Neerslag
  EWN Forecast EWN WRFDA DWD ICON FMI HIRLAM MET Norway GFS
 03:26     21:41    Daglengte: 18:15 Vandaag
17:00 11.6° 1019.1 hPa 2.9 m/s 0.0 mm 11.2° 1017.7 hPa 4.2 m/s 0.6 mm 12.9° 1018.9 hPa 2.7 m/s -2.0 mm 10.3° 1019.4 hPa 3.6 m/s 0.0 mm 11.6° 1018.9 hPa 1.8 m/s
20:00 10.3° 1019.2 hPa 2.0 m/s 0.0 mm 10.1° 1017.6 hPa 2.1 m/s 0.9 mm 10.4° 1019.0 hPa 1.4 m/s 0.0 mm 9.9° 1019.4 hPa 1.8 m/s 0.0 mm 10.5° 1019.2 hPa 0.9 m/s
23:00 7.6° 1019.6 hPa 1.6 m/s 0.0 mm 9.9° 1017.1 hPa 2.5 m/s 0.9 mm 6.6° 1020.2 hPa 1.3 m/s 0.0 mm 7.1° 1019.8 hPa 1.6 m/s 0.0 mm 8.1° 1019.7 hPa 1.4 m/s
 03:31     21:35    Daglengte: 18:04 Morgen
02:00 7.2° 1019.2 hPa 2.2 m/s 0.0 mm 10.0° 1015.8 hPa 4.0 m/s 1.1 mm 5.4° 1019.6 hPa 1.5 m/s 0.0 mm 6.8° 1019.7 hPa 1.9 m/s 0.0 mm 8.2° 1019.2 hPa 0.1 m/s
05:00 8.4° 1018.1 hPa 2.0 m/s 0.0 mm 11.2° 1013.9 hPa 5.8 m/s 1.3 mm 6.6° 1018.8 hPa 1.5 m/s 0.0 mm 8.1° 1018.5 hPa 1.3 m/s 0.0 mm 8.9° 1018.2 hPa 0.8 m/s
08:00 10.7° 1016.7 hPa 2.3 m/s 0.0 mm 13.7° 1013.5 hPa 3.1 m/s 1.3 mm 10.3° 1017.2 hPa 0.8 m/s 0.0 mm 10.2° 1016.7 hPa 2.0 m/s 0.0 mm 10.3° 1017.8 hPa 1.1 m/s
11:00 13.2° 1016.1 hPa 1.6 m/s 0.0 mm 16.3° 1013.0 hPa 0.8 m/s 1.3 mm 13.6° 1016.4 hPa 1.3 m/s 0.0 mm 13.1° 1016.4 hPa 0.2 m/s 0.0 mm 12.5° 1016.8 hPa 0.6 m/s
14:00 14.6° 1015.2 hPa 1.8 m/s 0.0 mm 18.0° 1012.3 hPa 1.5 m/s 1.4 mm 14.9° 1015.3 hPa 1.8 m/s 0.0 mm 13.6° 1016.2 hPa 0.8 m/s 0.0 mm 12.5° 1015.8 hPa 2.3 m/s
17:00 14.5° 1014.2 hPa 1.5 m/s 0.0 mm 16.8° 1011.6 hPa 5.1 m/s 2.9 mm 15.3° 1013.9 hPa 0.9 m/s 0.0 mm 14.1° 1015.3 hPa 0.8 m/s 0.0 mm 13.6° 1014.3 hPa 1.6 m/s
20:00 14.6° 1013.4 hPa 1.1 m/s 0.0 mm 18.1° 1010.4 hPa 4.2 m/s 4.6 mm 14.3° 1012.8 hPa 0.5 m/s 0.3 mm 14.0° 1014.6 hPa 1.7 m/s 0.0 mm 15.2° 1013.0 hPa 3.4 m/s
23:00 14.4° 1013.1 hPa 2.8 m/s 0.0 mm 16.0° 1010.2 hPa 6.0 m/s 4.6 mm 14.6° 1012.0 hPa 2.1 m/s 0.0 mm 11.5° 1014.7 hPa 1.3 m/s 0.0 mm 13.2° 1012.4 hPa 5.7 m/s
 03:36     21:30    Daglengte: 17:54 Dinsdag 16 Aug
02:00 14.1° 1012.7 hPa 3.7 m/s 0.0 mm 14.6° 1010.3 hPa 4.9 m/s 4.6 mm 14.8° 1011.1 hPa 2.4 m/s 0.0 mm 12.3° 1014.4 hPa 3.1 m/s 0.0 mm 14.4° 1011.4 hPa 6.8 m/s
05:00 14.2° 1011.8 hPa 4.0 m/s 0.0 mm 15.1° 1009.9 hPa 4.0 m/s 4.6 mm 14.8° 1010.4 hPa 1.7 m/s -0.0 mm 12.9° 1013.2 hPa 3.9 m/s 0.0 mm 13.4° 1011.2 hPa 4.4 m/s
08:00 16.6° 1011.2 hPa 4.2 m/s 0.0 mm 17.2° 1010.5 hPa 2.9 m/s 4.6 mm 18.3° 1009.7 hPa 1.7 m/s 0.0 mm 16.4° 1012.0 hPa 4.4 m/s 0.0 mm 14.6° 1011.6 hPa 2.9 m/s
11:00 19.0° 1010.3 hPa 4.4 m/s 0.0 mm 18.9° 1010.2 hPa 4.8 m/s 4.6 mm 21.1° 1009.7 hPa 1.8 m/s 0.0 mm 16.9° 1011.4 hPa 2.7 m/s
14:00 20.7° 1009.4 hPa 4.3 m/s 0.0 mm 21.1° 1009.2 hPa 5.8 m/s 4.6 mm 21.4° 1008.8 hPa 0.9 m/s 0.0 mm 19.3° 1010.4 hPa 4.6 m/s
17:00 19.8° 1009.2 hPa 5.3 m/s 0.0 mm 22.0° 1008.1 hPa 6.5 m/s 4.6 mm 19.6° 1009.0 hPa 1.2 m/s 0.0 mm 20.4° 1009.3 hPa 8.3 m/s
20:00 19.1° 1008.1 hPa 2.8 m/s 0.0 mm 19.7° 1007.8 hPa 2.6 m/s 5.2 mm 17.8° 1007.4 hPa 0.8 m/s 0.0 mm 19.1° 1008.9 hPa 8.0 m/s
23:00 18.8° 1007.9 hPa 4.9 m/s 0.0 mm 17.0° 1007.8 hPa 5.2 m/s 7.0 mm 19.1° 1006.1 hPa 3.5 m/s 0.1 mm 16.3° 1008.4 hPa 6.8 m/s
 03:41     21:24    Daglengte: 17:43 Woensdag 17 Aug
02:00 18.0° 1006.6 hPa 6.2 m/s 0.0 mm 16.9° 1006.7 hPa 6.5 m/s 7.6 mm 19.1° 1003.9 hPa 4.4 m/s 0.0 mm 15.8° 1006.9 hPa 8.3 m/s
05:00 17.6° 1005.1 hPa 7.1 m/s 0.0 mm 16.7° 1005.0 hPa 7.6 m/s 7.6 mm 19.4° 1002.7 hPa 4.8 m/s 0.0 mm 15.7° 1005.8 hPa 8.6 m/s
08:00 20.1° 1002.6 hPa 5.7 m/s 0.9 mm 18.3° 1004.1 hPa 9.0 m/s 7.6 mm 20.5° 1002.2 hPa 4.9 m/s 0.1 mm 17.9° 1004.7 hPa 9.9 m/s
11:00 15.4° 1004.4 hPa 4.1 m/s 3.6 mm 19.4° 1004.7 hPa 8.9 m/s 7.6 mm 14.4° 1004.3 hPa 2.9 m/s 1.6 mm 19.7° 1004.5 hPa 11.5 m/s
14:00 12.0° 1005.8 hPa 3.0 m/s 7.7 mm 10.7° 1009.4 hPa 6.0 m/s 14.5 mm 12.4° 1004.9 hPa 2.3 m/s 4.3 mm 19.3° 1004.5 hPa 9.4 m/s
17:00 19.6° 1004.4 hPa 6.5 m/s 1.1 mm 19.6° 1004.4 hPa 6.5 m/s 1.1 mm
20:00 11.2° 1009.4 hPa 5.0 m/s 3.1 mm 11.2° 1009.4 hPa 5.0 m/s 3.1 mm
23:00 9.8° 1012.9 hPa 4.4 m/s 4.5 mm 9.8° 1012.9 hPa 4.4 m/s 4.5 mm
 03:45     21:19    Daglengte: 17:34 Donderdag 18 Aug
02:00 9.0° 1015.4 hPa 3.5 m/s 6.1 mm 9.0° 1015.4 hPa 3.5 m/s 6.1 mm
05:00 8.6° 1017.2 hPa 1.2 m/s 7.5 mm 8.6° 1017.2 hPa 1.2 m/s 7.5 mm
08:00 8.7° 1019.3 hPa 0.6 m/s 8.5 mm 8.7° 1019.3 hPa 0.6 m/s 8.5 mm
11:00 9.1° 1021.1 hPa 0.7 m/s 8.9 mm 9.1° 1021.1 hPa 0.7 m/s 8.9 mm
14:00 10.0° 1022.1 hPa 1.6 m/s 8.9 mm 10.0° 1022.1 hPa 1.6 m/s 8.9 mm
17:00 10.4° 1022.1 hPa 1.0 m/s 8.9 mm 10.4° 1022.1 hPa 1.0 m/s 8.9 mm
20:00 10.2° 1021.2 hPa 0.9 m/s 9.0 mm 10.2° 1021.2 hPa 0.9 m/s 9.0 mm
23:00 9.6° 1020.6 hPa 0.7 m/s 9.4 mm 9.6° 1020.6 hPa 0.7 m/s 9.4 mm
 03:50     21:14    Daglengte: 17:24 Vrijdag 19 Aug
02:00 9.2° 1020.5 hPa 2.0 m/s 10.0 mm 9.2° 1020.5 hPa 2.0 m/s 10.0 mm
05:00 9.6° 1019.6 hPa 2.4 m/s 10.0 mm 9.6° 1019.6 hPa 2.4 m/s 10.0 mm
08:00 10.3° 1019.8 hPa 4.8 m/s 10.0 mm 10.3° 1019.8 hPa 4.8 m/s 10.0 mm
11:00 11.8° 1019.2 hPa 4.9 m/s 10.0 mm 11.8° 1019.2 hPa 4.9 m/s 10.0 mm
14:00 13.5° 1018.6 hPa 7.6 m/s 10.1 mm 13.5° 1018.6 hPa 7.6 m/s 10.1 mm
17:00 14.6° 1017.3 hPa 7.8 m/s 10.1 mm 14.6° 1017.3 hPa 7.8 m/s 10.1 mm
20:00 15.3° 1017.1 hPa 5.8 m/s 10.1 mm 15.3° 1017.1 hPa 5.8 m/s 10.1 mm
23:00 13.5° 1017.1 hPa 7.1 m/s 10.1 mm 13.5° 1017.1 hPa 7.1 m/s 10.1 mm
 03:55     21:09    Daglengte: 17:14 Zaterdag 20 Aug
02:00 12.6° 1017.2 hPa 6.2 m/s 10.1 mm 12.6° 1017.2 hPa 6.2 m/s 10.1 mm
05:00 13.1° 1016.7 hPa 5.8 m/s 10.1 mm 13.0° 1016.7 hPa 5.8 m/s 10.1 mm
08:00 16.2° 1015.6 hPa 6.9 m/s 10.1 mm 16.2° 1015.6 hPa 6.9 m/s 10.1 mm
11:00 19.0° 1014.9 hPa 8.9 m/s 10.1 mm 19.0° 1014.9 hPa 8.9 m/s 10.1 mm
14:00 20.6° 1014.1 hPa 9.0 m/s 10.1 mm 20.6° 1014.1 hPa 9.0 m/s 10.1 mm
20:00 18.7° 1013.9 hPa 6.3 m/s 10.1 mm 18.7° 1013.9 hPa 6.3 m/s 10.1 mm
23:00 16.5° 1014.1 hPa 5.7 m/s 10.1 mm 16.5° 1014.1 hPa 5.7 m/s 10.1 mm
 03:59     21:03    Daglengte: 17:04 Zondag 21 Aug
02:00 15.1° 1013.7 hPa 5.8 m/s 10.1 mm 15.1° 1013.7 hPa 5.8 m/s 10.1 mm
05:00 15.1° 1013.3 hPa 5.9 m/s 10.1 mm 15.1° 1013.3 hPa 5.9 m/s 10.1 mm
08:00 17.8° 1013.4 hPa 8.2 m/s 10.1 mm 17.8° 1013.4 hPa 8.2 m/s 10.1 mm
11:00 18.8° 1013.0 hPa 9.8 m/s 10.1 mm 18.8° 1013.0 hPa 9.8 m/s 10.1 mm
14:00 20.0° 1012.3 hPa 8.4 m/s 10.1 mm 20.0° 1012.3 hPa 8.4 m/s 10.1 mm
17:00 20.1° 1011.1 hPa 7.2 m/s 10.1 mm 20.1° 1011.1 hPa 7.2 m/s 10.1 mm
20:00 18.3° 1010.7 hPa 5.0 m/s 10.1 mm 18.3° 1010.7 hPa 5.0 m/s 10.1 mm
 04:04     20:58    Daglengte: 16:54 Maandag 22 Aug
02:00 14.6° 1009.0 hPa 5.1 m/s 10.1 mm 14.6° 1009.0 hPa 5.1 m/s 10.1 mm
08:00 15.2° 1006.9 hPa 7.1 m/s 10.1 mm 15.2° 1006.9 hPa 7.1 m/s 10.1 mm
14:00 15.6° 1004.9 hPa 8.4 m/s 10.3 mm 15.6° 1004.9 hPa 8.4 m/s 10.3 mm
20:00 15.6° 1005.8 hPa 7.2 m/s 10.3 mm 15.6° 1005.8 hPa 7.2 m/s 10.3 mm
 04:08     20:53    Daglengte: 16:45 Dinsdag 23 Aug
02:00 13.1° 1006.8 hPa 8.7 m/s 10.3 mm 13.1° 1006.8 hPa 8.7 m/s 10.3 mm
08:00 13.3° 1008.2 hPa 10.1 m/s 10.3 mm 13.3° 1008.2 hPa 10.1 m/s 10.3 mm
14:00 15.4° 1008.6 hPa 12.5 m/s 10.3 mm 15.4° 1008.6 hPa 12.5 m/s 10.3 mm
20:00 14.3° 1008.3 hPa 8.7 m/s 10.3 mm 14.3° 1008.3 hPa 8.7 m/s 10.3 mm
 04:13     20:48    Daglengte: 16:35 Woensdag 24 Aug
02:00 11.4° 1010.6 hPa 4.5 m/s 10.3 mm 11.4° 1010.6 hPa 4.5 m/s 10.3 mm
08:00 12.3° 1011.7 hPa 4.8 m/s 10.4 mm 12.3° 1011.7 hPa 4.8 m/s 10.4 mm
14:00 15.0° 1012.8 hPa 1.8 m/s 1.2 mm
20:00 12.5° 1013.0 hPa 0.5 m/s 0.2 mm
 04:17     20:43    Daglengte: 16:26 Donderdag 25 Aug
02:00 10.4° 1013.4 hPa 0.9 m/s 0.0 mm
08:00 11.9° 1013.4 hPa 0.8 m/s 1.0 mm
14:00 14.4° 1013.5 hPa 0.9 m/s 0.0 mm
20:00 12.1° 1013.7 hPa 0.5 m/s 0.8 mm
 04:22     20:38    Daglengte: 16:16 Vrijdag 26 Aug
02:00 9.9° 1014.2 hPa 1.0 m/s 0.9 mm
08:00 11.6° 1014.5 hPa 1.2 m/s 0.6 mm
14:00 14.0° 1014.9 hPa 1.5 m/s 0.5 mm
20:00 11.3° 1015.2 hPa 0.8 m/s 0.9 mm
 04:26     20:33    Daglengte: 16:07 Zaterdag 27 Aug
02:00 9.2° 1015.4 hPa 1.1 m/s 0.2 mm
08:00 10.9° 1014.9 hPa 1.2 m/s 1.0 mm
14:00 13.6° 1015.0 hPa 1.9 m/s 0.6 mm
20:00 11.0° 1015.2 hPa 1.2 m/s 0.2 mm
 04:30     20:28    Daglengte: 15:58 Zondag 28 Aug
02:00 9.1° 1015.6 hPa 1.4 m/s 0.7 mm
08:00 10.1° 1015.2 hPa 1.3 m/s 0.8 mm
14:00 12.3° 1015.8 hPa 1.7 m/s 0.1 mm
20:00 10.1° 1015.8 hPa 0.7 m/s 0.9 mm
 04:35     20:23    Daglengte: 15:48 Maandag 29 Aug
02:00 8.0° 1015.5 hPa 1.2 m/s 0.7 mm
08:00 9.7° 1014.9 hPa 1.8 m/s 0.9 mm
14:00 12.2° 1015.3 hPa 2.1 m/s 0.8 mm
FMI Hirlam - 7.5 km EWN WRFDA - 12 km DWD ICON - 7 km GFS - 25 km Basiskaart






























































Updatetijd (Europe/Brussels) Resolutie Lengte Stap
FMI Hirlam 14:15, 20:15, 02:15, 08:15 7.5 km 49h 1h
EWN WRFDA 10:15, 16:15, 22:15, 04:15 12 km 73h 1h
DWD ICON 11:45, 17:45, 23:45, 05:45 7 km 75h 1h
GFS 14:15, 20:15, 02:15, 08:15 25 km 237h 3h
30+ mm
25-30 mm
20-25 mm
15-20 mm
10-15 mm
6-10 mm
4-6 mm
2-4 mm
1-2 mm
0.5-1 mm
0.2-0.5 mm
0.1-0.2 mm
30+ mm
25-30 mm
20-25 mm
15-20 mm
10-15 mm
6-10 mm
4-6 mm
2-4 mm
1-2 mm
0.5-1 mm
0.2-0.5 mm
0.1-0.2 mm
Sneeuwval
Natte sneeuw
Hagel
Vorst
30+ mm
25-30 mm
20-25 mm
15-20 mm
10-15 mm
6-10 mm
4-6 mm
2-4 mm
1-2 mm
0.5-1 mm
0.2-0.5 mm
0.1-0.2 mm
Sneeuwval
Natte sneeuw
Hagel
Vorst
Onweer
50 mm
40 mm
30 mm
26 mm
22 mm
18 mm
14 mm
10 mm
9 mm
8 mm
7 mm
6 mm
5 mm
4.5 mm
4 mm
3.5 mm
3 mm
2.5 mm
2 mm
1.5 mm
1 mm
0.8 mm
0.6 mm
0.4 mm
0.2 mm
0.05 mm
35°
30°
25°
20°
15°
10°
-5°
-10°
-15°
-20°
-25°
-30°
-35°
33> m/s
29 m/s
25 m/s
21 m/s
17 m/s
14 m/s
11 m/s
8 m/s
5 m/s
3 m/s
0 m/s
2600 J/kg
2400 J/kg
2200 J/kg
2000 J/kg
1800 J/kg
1600 J/kg
1400 J/kg
1200 J/kg
1000 J/kg
800 J/kg
600 J/kg
400 J/kg
200 J/kg
70 dBZ
65 dBZ
60 dBZ
55 dBZ
50 dBZ
45 dBZ
40 dBZ
35 dBZ
30 dBZ
25 dBZ
20 dBZ
15 dBZ
10 dBZ
5 dBZ
-1 K
-2 K
-3 K
-4 K
-5 K
-6 K
-7 K
-8 K
-9 K
950 m²/s²
900 m²/s²
850 m²/s²
800 m²/s²
750 m²/s²
700 m²/s²
650 m²/s²
600 m²/s²
550 m²/s²
500 m²/s²
450 m²/s²
400 m²/s²
350 m²/s²
300 m²/s²
250 m²/s²
200 m²/s²
150 m²/s²
100 m²/s²
46 m/s
44 m/s
42 m/s
40 m/s
38 m/s
36 m/s
34 m/s
32 m/s
30 m/s
28 m/s
26 m/s
24 m/s
22 m/s
20 m/s
16 m/s
12 m/s
8 m/s
4 m/s
30 m/s
28 m/s
26 m/s
24 m/s
22 m/s
20 m/s
18 m/s
16 m/s
14 m/s
12 m/s
10 m/s
8 m/s
6 m/s
4 m/s
2 m/s
3.0
2.8
2.6
2.4
2.2
2.0
1.8
1.6
1.4
1.2
1.0
0.8
0.6
0.4
0.2
15
14
13
12
11
10
9
8
7
6
5
4
3
2
1
90%
80%
70%
60%
50%
40%
30%
20%
10%
42
40
38
36
34
32
30
28
26
24
22
20
18
16
14
12
90+ cm
80-90 cm
70-80 cm
60-70 cm
50-60 cm
40-50 cm
30-40 cm
20-30 cm
10-20 cm
1-10 cm
Sneeuwval
Natte sneeuw
Regen
>120 mm
115 mm
110 mm
105 mm
100 mm
95 mm
90 mm
85 mm
80 mm
75 mm
70 mm
65 mm
60 mm
55 mm
50 mm
45 mm
45 mm
40 mm
35 mm
30 mm
25 mm
20 mm
15 mm
10 mm
5 mm
0.1 mm
960 hPa
880 hPa
800 hPa
720 hPa
640 hPa
560 hPa
584 gpdm
568 gpdm
552 gpdm
536 gpdm
520 gpdm
504 gpdm
488 gpdm
Extreem zwaar Noodweer Kans op onweer
15% 15% 5% 50% 15%

Dag




Kaart






35°
30°
25°
20°
15°
10°
-5°
-10°
-15°
-20°
-25°
-30°
-35°
33> m/s
29 m/s
25 m/s
21 m/s
17 m/s
14 m/s
11 m/s
8 m/s
5 m/s
3 m/s
0 m/s
Extreem zwaar Noodweer Kans op onweer
15% 15% 5% 50% 15%
<
>120 mm
115 mm
110 mm
105 mm
100 mm
95 mm
90 mm
85 mm
80 mm
75 mm
70 mm
65 mm
60 mm
55 mm
50 mm
45 mm
45 mm
40 mm
35 mm
30 mm
25 mm
20 mm
15 mm